[Iaude] MPEC L07: 2024 KS1 [a=1.72,e=0.47,i=13.7,H=27.0]
    mpec at cfa.harvard.edu 
    mpec at cfa.harvard.edu
       
    Sat Jun  1 07:23:44 EDT 2024
    
    
  
M.P.E.C. 2024-L07                                  Issued 2024 June 1, 11:22 UT
     The Minor Planet Electronic Circulars contain information on unusual
         minor planets, routine data on comets and natural satellites,
         and occasional editorial announcements.  They are published
    on behalf of Division F of the International Astronomical Union by the
          Minor Planet Center, Smithsonian Astrophysical Observatory,
                          Cambridge, MA 02138, U.S.A.
			  
             Prepared using the Tamkin Foundation Computer Network
                              MPC at CFA.HARVARD.EDU
            URL https://www.minorplanetcenter.net/    ISSN 1523-6714
                                    2024 KS1                                    
Observations:
     K24K01S  C2024 05 29.33373914 42 52.043-14 01 07.61               VEL007F51
     K24K01S  C2024 05 29.34631614 43 35.134-13 54 21.99         19.30GVEL007F51
     K24K01S  C2024 05 29.35865414 44 17.076-13 47 45.46         19.41GVEL007F51
     K24K01S  C2024 05 29.37073814 44 57.923-13 41 18.10               VEL007F51
     K24K01S*1C2024 05 31.31297715 59 53.207-01 30 55.51         20.65GVEL007G96
     K24K01S 1C2024 05 31.31817516 00 00.306-01 29 37.90         19.80GVEL007G96
     K24K01S 1C2024 05 31.32337816 00 07.312-01 28 22.04               VEL007G96
     K24K01S 1C2024 05 31.32859416 00 14.490-01 27 03.53         20.33GVEL007G96
     K24K01S KC2024 05 31.41778516 02 14.129-01 05 29.18         20.26GVEL007I52
     K24K01S KC2024 05 31.41836916 02 14.917-01 05 20.87         20.21GVEL007I52
     K24K01S KC2024 05 31.41895616 02 15.760-01 05 12.70         20.31GVEL007I52
     K24K01S KC2024 05 31.41953916 02 16.512-01 05 04.74         20.58GVEL007I52
     K24K01S  C2024 05 31.44277416 02 47.248-00 59 40.73         20.4 GVEL007H01
     K24K01S  C2024 05 31.44608016 02 51.672-00 58 54.13         20.3 GVEL007H01
     K24K01S  C2024 05 31.44961416 02 56.421-00 58 04.58         20.3 GVEL007H01
     K24K01S KC2024 05 31.45043916 02 57.750-00 57 47.10         19.71GVEL007I52
     K24K01S KC2024 05 31.45102116 02 58.520-00 57 38.10         20.50GVEL007I52
     K24K01S KC2024 05 31.45160316 02 59.290-00 57 30.40         20.79GVEL007I52
     K24K01S KC2024 05 31.45305816 03 01.024-00 57 15.99         20.6 GVEL007H01
     K24K01S KC2024 06 01.22740416 18 45.767+01 39 23.18         20.63GVEL007I52
     K24K01S KC2024 06 01.22826416 18 46.616+01 39 32.11         20.52GVEL007I52
     K24K01S KC2024 06 01.22913016 18 47.394+01 39 41.94         20.66GVEL007I52
Observer details:
F51 Pan-STARRS 1, Haleakala.  Observers J. Herman, T. Lowe, P. Minguez, A.
    Schultz, I. Smith.  Measurers K. Chambers, T. de Boer, J. Fairlamb, H.
    Gao, M. Huber, C.-C. Lin, E. Magnier, Y. Ramanjooloo, R. Wainscoat, R.
    Weryk.  1.8-m Ritchey-Chretien + CCD.
G96 Mt. Lemmon Survey.  Observer T. Beuden.  Measurers T. Beuden, V. F.
    Carvajal, D. Fay, J. B. Fazekas, D. C. Fuls, A. R. Gibbs, A. D. Grauer, H.
    Groeller, J. K. Hogan, R. A. Kowalski, S. M. Larson, G. J. Leonard, D.
    Rankin, R. L. Seaman, F. C. Shelly, K. W. Wierzchos.  1.5-m reflector +
    10K CCD.
H01 Magdalena Ridge Observatory, Socorro.  Observers W. H. Ryan, E. V. Ryan.
    Measurer W. H. Ryan.  2.4-m f/8.9 Ritchey-Chretien + CCD.
I52 Steward Observatory, Mt. Lemmon Station.  Observers V. F. Carvajal, K. W.
    Wierzchos.  Measurers T. Beuden, V. F. Carvajal, D. Fay, J. B. Fazekas, D.
    C. Fuls, A. R. Gibbs, A. D. Grauer, H. Groeller, J. K. Hogan, R. A.
    Kowalski, S. M. Larson, G. J. Leonard, D. Rankin, R. L. Seaman, F. C.
    Shelly, K. W. Wierzchos.  1.0-m prime focus + CCD.
Orbital elements:
2024 KS1                                                 Earth MOID = 0.0116 AU
Epoch 2024 Mar. 31.0 TT = JDT 2460400.5                 Veres                   
M 351.21853              (2000.0)            P               Q                  
n   0.43776237     Peri.  310.96971     -0.92873178     +0.29958140             
a   1.7178178      Node   247.49703     -0.22712431     -0.92537251             
e   0.4656276      Incl.   13.67555     -0.29303895     -0.23224277             
P   2.25           H   27.00          G   0.15           U   8                  
Residuals in seconds of arc
240529 F51  0.2-  0.1-    240531 I52  0.5-  0.1+    240531 I52  0.0   0.4+
240529 F51  0.3+  0.2+    240531 I52  0.4-  0.1+    240531 I52  0.1-  0.1-
240529 F51  0.0   0.0     240531 I52  0.5+  0.1-    240531 H01  0.0   0.1-
240529 F51  0.1-  0.2-    240531 I52  0.1+  0.4-    240601 I52  0.1-  0.3-
240531 G96  0.4-  0.2-    240531 H01  0.2+  0.1+    240601 I52  0.4+  0.3-
240531 G96  0.2+  0.3+    240531 H01  0.1+  0.0     240601 I52  0.3-  0.4+
240531 G96  0.7-  0.9-    240531 H01  0.2+  0.2-
240531 G96  1.0+  0.4+    240531 I52  0.1+  0.4-
Ephemeris:
2024 KS1                 a,e,i = 1.72, 0.47, 14                  q = 0.9180
Date    TT    R. A. (2000) Decl.     Delta      r    Elong.  Phase     V
2024 05 02    06 00 48.4 -17 19 52   0.1832  0.9295    59.9   110.3    27.3
...
2024 05 17    06 33 41.3 -21 52 07   0.07848 0.9743    59.9   116.1    26.0
...
2024 05 25    08 30 56.9 -31 48 30   0.02563 1.0096    82.1    96.4    22.5
...
2024 05 31    15 51 47.5 -02 50 44   0.02830 1.0403   158.6    20.9    20.4
2024 06 01    16 14 34.7 +01 00 09   0.03443 1.0456   156.4    22.9    20.9
2024 06 02    16 30 20.5 +03 38 36   0.04091 1.0511   154.1    25.0    21.3
...
2024 06 08    17 10 30.8 +09 55 39   0.08270 1.0855   147.2    30.4    23.1
...
2024 06 16    17 26 15.1 +11 34 23   0.1415  1.1346   145.0    30.9    24.4
...
2024 07 01    17 37 05.4 +10 37 46   0.2593  1.2333   142.9    29.9    25.8
M. P. C. Staff               (C) Copyright 2024 MPC           M.P.E.C. 2024-L07
    
    
More information about the Iaude
mailing list